Regional Weather Roundup
Issued by NWS Pendleton, OR

Home | Current Version | Previous Version | Text Only | Print | Product List | Glossary On
Versions: 1 2 3 4 5 6 7 8 9 10 11 12 13 14 15 16 17 18 19 20 21 22 23 24 25 26 27 28 29 30 31 32 33 34 35 36 37 38 39 40 41 42 43 44 45 46 47 48 49 50
598
ASUS46 KPDT 021925
RWRPDT
PENDLETON REGIONAL WEATHER ROUNDUP
NATIONAL WEATHER SERVICE PENDLETON OREGON
1200 PM PDT MON MAY 2 2016

NOTE: FAIR INDICATES FEW OR NO CLOUDS BELOW 12,000 FEET WITH NO
SIGNIFICANT WEATHER AND/OR OBSTRUCTIONS TO VISIBILITY.

# INDICATES UNOFFICIAL STATION AND DATA

WAZ520-022010-
EAST SLOPES OF WASHINGTON CASCADES

CITY            SKY/WX      TMP DP  RH  WIND    PRES   REMARKS
#CLE ELUM HS    N/A         70  39  32  S7      30.03F
#CLE ELUM 2NW   N/A         69  38  32  E5      N/A
#CLE ELUM LAKE  N/A         71  43  36  CALM    30.00F
#GLENWOOD       N/A         71  47  42  S3      30.03F
#MANASTASH CYN  N/A         68  44  42  W5      30.07F
#NELSON 3SW     N/A         66  45  47  CALM    30.22S
#NILE           N/A         72  41  33  E2      29.32F
#RONALD 2NW     N/A         70  N/A N/A SE2     29.96F
#TEANAWAY 4NE   N/A         72  48  43  S2      N/A
#TROUT LAKE 1NE N/A         71  45  39  E5      30.03S
#TROUT LAKE 1E  N/A         75  48  38  CALM    30.03
$$

WAZ521-022010-
SIMCOE HIGHLANDS

CITY            SKY/WX      TMP DP  RH  WIND    PRES   REMARKS
#BICKLETON HS   N/A         68  33  27  CALM    N/A
#CENTERVILLE 1SWN/A         70  45  41  E7      29.99F
#GOLDENDALE 1NE N/A         73  32  22  E5      N/A
#GOODNOE HILLS  N/A         78  43  29  SE10    29.94F
#LYLE 6NE       N/A         70  50  49  CALM    29.99S
$$

WAZ026-022010-
KITTITAS VALLEY

CITY            SKY/WX      TMP DP  RH  WIND    PRES   REMARKS
ELLENSBURG AP   FAIR        75  41  29  SE7     30.09F
YTC-OPS AREA    SUNNY       71  38  30  N5      30.14S
#ELLENSBURG CWU N/A         72  46  39  NE2     30.00F
#ELLENSBURG 3NE N/A         69  48  47  N2      30.08F
#ELLENSBURG     N/A         80  44  28  N2      N/A
#KITTITAS 3S    N/A         67  52  59  CALM    30.05F
#THORP 6N       N/A         69  44  40  E8      30.06F
$$

WAZ027-022010-
YAKIMA VALLEY

CITY            SKY/WX      TMP DP  RH  WIND    PRES   REMARKS
SUNNYSIDE AP    FAIR        73  44  35  CALM    30.06F
YAKIMA AIRPORT  FAIR        78  41  27  VRB7    30.07F
YAKIMA-VAGABOND SUNNY       74  42  32  W6      30.05F
#DONALD 2NE     N/A         81  16   9  S2      28.91F
#GRANDVIEW      N/A         75  43  32  E3      30.05F
#MABTON         N/A         74  48  40  NE1     30.05F
#NACHES 2SW     N/A         74  46  37  S2      30.09F
#TERRACE HTS    N/A         75  45  34  S1      30.01S
#TOPPENISH      N/A         74  45  35  CALM    29.96F
#WEST VALLEY    N/A         72  44  37  SE1     30.03F
#W YAKIMA       N/A         74  44  34  NE3     30.04F
#WHITE SWAN 5E  N/A         73  47  40  CALM    30.05F
#WILEY CITY 3W  N/A         74  38  27  CALM    30.05S
$$

WAZ028-022010-
LOWER COLUMBIA BASIN...WASHINGTON

CITY            SKY/WX      TMP DP  RH  WIND    PRES   REMARKS
HANFORD         SUNNY       76  40  27  NE5     30.07S
PASCO           FAIR        74  51  44  N3      30.06F
PROSSER AWOS    N/A         75  48  38  E5      30.08F
RICHLAND AWOS   FAIR        78  48  35  CALM    30.06F
#BASIN CITY 5SW N/A         74  55  51  N2      30.03F
#BENTON CITY    N/A         72  49  44  N3      29.96F
#CONNELL 5N     N/A         76  53  45  NW1     30.05F
#CONNELL 5NW    N/A         72  43  35  CALM    30.02F
#ELTOPIA 6NW    N/A         75  52  45  CALM    29.03F
#KAHLOTUS       N/A         71  52  51  S5      30.05F
#KENNEWICK 3S   N/A         73  52  48  CALM    30.05F
#PATERSON       N/A         74  49  41  SW2     30.02F
#SAGEMOOR 2W    N/A         75  52  45  CALM    29.90F
#TOUCHET 2S     N/A         74  56  53  CALM    30.02F
#WEST PASCO     N/A         74  54  50  N1      30.14F
$$

WAZ029-022010-
FOOTHILLS OF THE BLUES...WASHINGTON

CITY            SKY/WX      TMP DP  RH  WIND    PRES   REMARKS
WALLA WALLA AP  FAIR        74  48  40  NW7     30.06F
#CLYDE 6NW      N/A         74  49  41  SW2     30.03F
#DAYTON SCHOOL  N/A         74  43  33  NE2     30.09F
#LOWDEN 2SE     N/A         76  55  48  CALM    30.01F
#PLEASANT VIEW 1N/A         73  53  49  W2      30.08F
#PRESCOTT       N/A         77  50  39  CALM    30.03F
#SUDBURY        N/A         57  N/A N/A CALM    N/A
#WHITMAN COLLEGEN/A         76  50  40  N3      30.07F
#WAITSBURG 5S   N/A         74  45  35  W1      30.12F
#WAITSBURG 8N   N/A         84  24  11  SW3     29.91F
#WALLA WALLA U  N/A         76  53  45  CALM    30.03F
#WHITMAN MISSIONN/A         72  54  53  CALM    30.05F
$$

WAZ030-022010-
BLUE MOUNTAINS...WASHINGTON

CITY            SKY/WX      TMP DP  RH  WIND    PRES   REMARKS
#DIXIE 5SE      N/A         69  46  44  NW6     30.06S
$$

ORZ009-041-WAZ024-022010-
COLUMBIA RIVER GORGE

CITY            SKY/WX      TMP DP  RH  WIND    PRES   REMARKS
HOOD RIVER AP   FAIR        77  45  32  NE8     30.02F
THE DALLES AP   FAIR        78  41  27  CALM    30.02F
#ARLINGTON AIRPON/A         75  43  32  E9      30.02F
#CELILO DOT     N/A         75  48  38  S6      N/A
#MARYHILL 2W    N/A         75  46  36  NE1     N/A
#MOSIER 1S      N/A         76  36  23  NE8     30.03S
#MURDOCK        N/A         76  48  37  SW2     29.97F
#RUFUS DOT      N/A         68  49  51  NE6     N/A

$$

ORZ510-022010-
NORTH CENTRAL OREGON

CITY            SKY/WX      TMP DP  RH  WIND    PRES   REMARKS
#ANTELOPE       N/A         71  38  30  SE7     29.86F
#COW CYN RST AREN/A         69  32  25  E8      N/A
#DUFUR 9E       N/A         69  43  39  NE15    30.04F
#GRASS VALLEY   N/A         73  32  22  S5      N/A
#GRASS VALLEY 1SN/A         74  36  25  SE14G24 30.01F
#KENT DOT       N/A         74  32  21  N8      N/A
#MAUPIN SCHOOL  N/A         74  46  37  VRB2    30.06F
#MORO SCHOOL    N/A         74  50  43  NE8     30.05F
#SHANIKO 5WSW   N/A         69  26  20  E22     N/A
#TYGH VALLEY 2NEN/A         73  44  35  SE1     30.01F
#WAPANITIA AIRPON/A         72  42  34  CALM    30.03F
#WASCO DOT      N/A         75  45  34  NE8     N/A
#WASCO 5NE      N/A         72  48  43  N3      30.03F
$$

ORZ511-022010-
CENTRAL OREGON

CITY            SKY/WX      TMP DP  RH  WIND    PRES   REMARKS
BEND AIRPORT    FAIR        72  28  19  SE14    30.07F
MADRAS AIRPORT  FAIR        72  39  30  NE3     30.08F
PRINEVILLE AP   FAIR        72  27  19  E17     30.08F
REDMOND AIRPORT FAIR        73  28  19  S13     30.07F
#ASHWOOD SCHOOL N/A         74  29  19  SE6     30.01F
#BEND 1SW       N/A         72  34  25  NE2     N/A
#BEND-AWBREY    N/A         70  35  28  NE3     29.98F
#BEND-KIM LN    N/A         72  35  26  E5      30.05F
#CULVER         N/A         71  34  26  E8      29.97F
#LAKE BILLY CHINN/A         75  N/A N/A SE2     30.09F
#POWELL BUTTE   N/A         72  30  21  E5      29.95F
#PRINEVILLE 3N  N/A         72  37  28  SE9     30.00F
#WARM SPRINGS   N/A         72  41  33  N5      30.02F

$$


ORZ509-022010-
EAST SLOPES OF OREGON CASCADES

CITY            SKY/WX      TMP DP  RH  WIND    PRES   REMARKS
SISTERS AWOS    N/A         70  30  22  E12     30.05F
#BLUE BOX PASS  N/A         65  N/A N/A CALM    N/A
#BLACK BUTTE RNCN/A         74  34  23  SW1     30.01F
#CAMP SHERMAN   N/A         74  33  22  S1      30.06S
#LA PINE 4NW    N/A         65  33  30  SE1     30.04F
#LAVA BUTTE DOT N/A         67  30  25  SW1     N/A
#SISTERS AIRPOR N/A         69  39  33  N7      30.17S
#SISTERS ODOT   N/A         70  N/A N/A NW2     N/A
#SISTERS 3N     N/A         70  37  30  E6      30.06F
#SUNRIVER       N/A         67  31  26  E3      30.00F
#TUMALO 3W      N/A         68  33  27  E7      29.86F
#WANOGA BUTTE D N/A         54  22  28  NE5     N/A

$$

ORZ044-022010-
LOWER COLUMBIA BASIN...OREGON

CITY            SKY/WX      TMP DP  RH  WIND    PRES   REMARKS
HERMISTON       FAIR        77  44  31  CALM    30.04F
#BOARDMAN SCHOOLN/A         71  45  39  N3      30.04F
#BOARDMAN 8SW   N/A         73  47  40  N6      30.02F
#ECHO 8SW       N/A         75  48  38  CALM    30.05F
#I-84 EX 198 DOTN/A         75  49  40  E8      N/A
#UMATILLA SCHOOLN/A         80  56  44  N1      30.03S
#UMATILLA       N/A         79  48  34  CALM    29.96F
$$

ORZ507-022010-
NORTHERN FOOTHILLS OF THE BLUES

CITY            SKY/WX      TMP DP  RH  WIND    PRES   REMARKS
PENDLETON AIRPT FAIR        79  33  19  CALM    30.05F
#ADAMS 3WNW     N/A         77  46  33  E5      30.01F
#ATHENA         N/A         74  49  41  N2      30.06F
#CAYUSE         N/A         76  46  34  N7      30.00F
#HELIX SCHOOL   N/A         75  45  34  CALM    30.04F
#HELIX 3N       N/A         72  46  39  N8      30.04F
#HELIX 6SW      N/A         78  42  28  N2      30.05F
#HOLDMAN 5SE    N/A         79  47  32  CALM    30.04F
#HOLDMAN 6E     N/A         77  49  37  S5      29.84F
#M-F FERNDALE   N/A         82  55  40  CALM    30.04F
#M-F GROVE ELEM N/A         73  45  37  CALM    30.04F
#M-FREEWATER 5SEN/A         73  54  51  CALM    30.06S
#PENDLETON DNTN N/A         83  44  25  E2      30.04F
#PDT AQUATIC CTRN/A         77  49  37  CALM    30.05F
#PDT SUNRIDGE   N/A         80  42  26  NW3     30.05F
#PENDLETON 7NW  N/A         80  51  36  W1      27.45S
#PILOT ROCK     N/A         75  41  29  N6      30.06F
#TUTUILLA       N/A         78  42  28  CALM    30.04F
#UMAPINE 2E     N/A         73  54  51  N1      30.02F
#WESTON SCHOOL  N/A         71  45  39  NE5     29.99F

$$

ORZ508-022010-
SOUTHERN FOOTHILLS OF THE BLUES

CITY            SKY/WX      TMP DP  RH  WIND    PRES   REMARKS
#AJAX           N/A         71  40  32  N7      27.81F
#CONDON SCHOOL  N/A         73  28  19  SE13    30.04S
#CONDON 5W      N/A         72  27  19  SE15    30.07F
#FOSSIL SCHOOL  N/A         73  32  22  S8      30.02F
#HEPPNER EOC    N/A         76  40  27  E2      29.95F
#HEPPNER 4NE    N/A         71  42  35  VRB1    30.02F
#LEXINGTON 2SE  N/A         78  44  30  N3      30.00F
#MIKKALO        N/A         77  42  29  NE6     30.15F
#OLEX 4N        N/A         72  46  39  E7      30.04F
#RUGGS 5NE      N/A         82  -15  2  E5      30.27S
#RUGGS 2SW      N/A         75  29  18  S10     30.04F

$$

ORZ502-503-022010-
BLUE MOUNTAINS

CITY            SKY/WX      TMP DP  RH  WIND    PRES   REMARKS
MEACHAM         FAIR        73  31  21  CALM    30.14F
#BATTLE MTN DOT N/A         66  39  37  S6      N/A
#GREENHORN 9SW  N/A         69  36  30  E7      26.32S
#HARDMAN 10S    N/A         61  34  36  N5      30.22R
#LADD CYN SMT   N/A         67  32  27  SE8     N/A
#LADD CREEK ODOTN/A         64  46  52  NE8     N/A
#N POWDER DOT   N/A         69  42  37  S6      N/A
#PIKES PEAK     N/A         67  48  50  E1      27.99S
#TOLLGATE       N/A         63  32  31  NE1     30.03F
#TROY SCHOOL    N/A         74  54  50  SE3     29.90F
#UKIAH          N/A         70  43  38  CALM    30.00F
#WESTON 4E      N/A         69  49  49  NW1     30.00F
$$

ORZ505-022010-
JOHN DAY BASIN

CITY            SKY/WX      TMP DP  RH  WIND    PRES   REMARKS
JOHN DAY        MOCLDY      71  31  23  E13     30.14S
#DAYVILLE SCHOOLN/A         74  32  21  SE8     30.04F
#MITCHELL       N/A         73  40  30  E6      30.21F
#MITCHELL 8NW   N/A         69  25  19  SE7     30.18F
#MONUMENT HS    N/A         72  39  30  CALM    30.01F
#MT. VERNON 5SE N/A         65  31  28  E6      30.09F
#SPRAY SCHOOL   N/A         77  N/A N/A E2      N/A
#WINLOCK        N/A         76  34  22  NW7     30.06F
$$

ORZ506-022010-
OCHOCO AND JOHN DAY HIGHLANDS

CITY            SKY/WX      TMP DP  RH  WIND    PRES   REMARKS
#HORSE RIDGE DO N/A         64  25  23  SE14    N/A
#KEYES SMT DOT  N/A         64  30  28  E20     N/A
#PAULINA SCHOOL N/A         69  33  26  SE10    29.36S
#PINE MTN OBS   N/A         53  30  41  SE14    N/A
#PRAIRIE CITY   N/A         70  30  22  SE6     30.11S
#SENECA         N/A         63  N/A N/A S5      N/A
#SENECA 9NW     N/A         64  31  29  E1      30.10S
$$

ORZ049-022010-
GRANDE RONDE VALLEY

CITY            SKY/WX      TMP DP  RH  WIND    PRES   REMARKS
LA GRANDE       FAIR        68  43  40  NE5     30.12F
#COVE           N/A         66  54  65  CALM    30.16F
#COVE SCHOOL    N/A         71  50  47  CALM    30.14F
#COVE 6NW       N/A         39  35  85  CALM    29.63S
#ELGIN 3N       N/A         71  45  39  S1      30.09F
#ELGIN 1E       N/A         69  47  45  CALM    N/A
#ISLAND CITY 4N N/A         77  56  48  S2      29.96S
#LADD CYN DOT   N/A         67  48  50  E3      N/A
#UNION 1S       N/A         67  51  56  CALM    30.00F
$$

ORZ050-022010-
WALLOWA COUNTY

CITY            SKY/WX      TMP DP  RH  WIND    PRES   REMARKS
JOSEPH AIRPORT  FAIR        68  36  31  N5      30.18F
#ENTERPRISE AP  N/A         49  29  46  CALM    30.09S
#ENTERPRISE HS  N/A         68  43  40  W5      30.15F
#IMNAHA SCHOOL  N/A         71  51  49  N5      30.09F
#JOSEPH 3N      N/A         65  41  41  CALM    30.17F
#JOSEPH 3W      N/A         64  34  33  N1      30.01F
#LOSTINE        N/A         69  42  37  CALM    29.90F
#MT HOWARD 8000 N/A         47  35  63  N2      30.30F
#PROMISE 1S     N/A         67  42  40  W2      30.15F
#WALLOWA SCHOOL N/A         70  44  39  CALM    30.10F



$$



USA.gov is the U.S. government's official web portal to all federal, state and local government web resources and services.